Regional Weather Roundup
Issued by NWS Glasgow, MT

Home | Current Version | Previous Version | Text Only | Print | Product List | Glossary On
Versions: 1 2 3 4 5 6 7 8 9 10 11 12 13 14 15 16 17 18 19 20 21 22 23 24 25 26 27 28 29 30 31 32 33 34 35 36 37 38 39 40 41 42 43 44 45 46 47 48 49 50
000
ASUS45 KGGW 261515
RWRGGW
HOURLY WEATHER ROUNDUP FOR NORTHEAST MONTANA
NATIONAL WEATHER SERVICE GLASGOW MONTANA
900 AM MDT SAT JUL 26 2014

NOTE: "FAIR" INDICATES FEW OR NO CLOUDS BELOW 12,000 FEET WITH NO
SIGNIFICANT WEATHER AND/OR OBSTRUCTIONS TO VISISBILITY.

NORTHEAST MONTANA


CITY           SKY/WX    TMP DP  RH WIND       PRES   REMARKS
GLASGOW        CLOUDY    61  50  67 W15G26    30.01R
PLENTYWOOD       N/A     60  51  72 W21G30      N/A
WOLF POINT     CLOUDY    63  49  60 W18G26    29.99R
JORDAN           N/A     66  45  46 W17G28    30.08R
WINNETT          N/A     64  43  46 W10         N/A
SIDNEY         MOSUNNY   64  48  55 W17G29    29.97R
GLENDIVE       SUNNY     64  48  55 W26G32    30.03R
MALTA            N/A     62  51  67 W20G28      N/A

FORT PECK REPORTS


CITY           SKY/WX    TMP DP  RH WIND       PRES   REMARKS
FORT PECK        N/A     60  47  61 W26G36      N/A
THE PINES        N/A     64  47  53 W12G25      N/A

SOUTHEAST MONTANA


CITY           SKY/WX    TMP DP  RH WIND       PRES   REMARKS
BILLINGS       SUNNY     64  40  41 SW9       30.16R
MILES CITY     SUNNY     70  45  40 W17       30.07R
BAKER          SUNNY     66  47  50 W17G26    30.05R
LIVINGSTON     SUNNY     66  36  32 SW6       30.21S

CENTRAL MONTANA


CITY           SKY/WX    TMP DP  RH WIND       PRES   REMARKS
HAVRE          SUNNY     63  47  55 W14G25    30.12R
LEWISTOWN      SUNNY     59  46  62 W3        30.19R
GREAT FALLS    SUNNY     63  39  41 VRB3      30.17R
CUT BANK       SUNNY     60  46  59 CALM      30.18R
HELENA         SUNNY     64  42  44 CALM      30.20R
BUTTE          SUNNY     53  33  46 CALM      30.29R
BOZEMAN        SUNNY     61  39  44 CALM      30.24R

WESTERN MONTANA


CITY           SKY/WX    TMP DP  RH WIND       PRES   REMARKS
MISSOULA       SUNNY     57  42  57 CALM      30.24R
KALISPELL      NOT AVBL

NORTH DAKOTA


CITY           SKY/WX    TMP DP  RH WIND       PRES   REMARKS
WILLISTON      PTSUNNY   65  51  60 W25G37    29.91R
DICKINSON      SUNNY     65  50  58 W21G30    29.96R
MINOT          MOSUNNY   64  51  62 W23G32    29.81S
BISMARCK       SUNNY     69  51  52 NW22G30   29.90S

SOUTHERN SASKATCHEWAN


CITY           SKY/WX    TMP DP  RH WIND       PRES   REMARKS
REGINA         LGT RAIN  59  57  94 NW20G29   29.80R
ESTEVAN        CLOUDY    61  55  82 W18G32    29.78S
SWIFT CURRENT  CLOUDY    55  54  94 NW21G28   29.96R



USA.gov is the U.S. government's official web portal to all federal, state and local government web resources and services.